Regional Weather Roundup
Issued by NWS Raleigh/Durham, NC

Home | Current Version | Previous Version | Text Only | Print | Product List | Glossary On
Versions: 1 2 3 4 5 6 7 8 9 10 11 12 13 14 15 16 17 18 19 20 21 22 23 24 25 26 27 28 29 30 31 32 33 34 35 36 37 38 39 40 41 42 43 44 45 46 47 48 49 50
000
ASUS42 KRAH 300910
RWRRAH
NORTH CAROLINA WEATHER ROUNDUP
NATIONAL WEATHER SERVICE RALEIGH NC
500 AM EDT TUE SEP 30 2014

NOTE: "FAIR" INDICATES FEW OR NO CLOUDS BELOW 12,000 FEET WITH NO
SIGNIFICANT WEATHER AND/OR OBSTRUCTIONS TO VISIBILITY.

NCZ001-053-055-056-065-067-301000-
WESTERN NORTH CAROLINA

CITY           SKY/WX    TMP DP  RH WIND       PRES   REMARKS
ASHEVILLE      CLOUDY    61  58  90 N6        30.00S
JEFFERSON      CLEAR     54  53  98 CALM      30.01S
MORGANTON      CLOUDY    62  62 100 CALM      30.00S
HICKORY        CLOUDY    62  61  96 W5        29.95F FOG
RUTHERFORDTON  CLOUDY    62  62 100 NW6       29.96S
MOUNT AIRY     FOG       63  60  93 CALM      29.96F VSB 1/4
BOONE          CLEAR     49  49 100 CALM      30.03S
$$

NCZ021-022-025-041-071-084-088-301000-
CENTRAL NORTH CAROLINA

CITY           SKY/WX    TMP DP  RH WIND       PRES   REMARKS
CHARLOTTE      FOG       61  59  93 CALM      29.94F VSB 1/4
GREENSBORO     FOG       60  60 100 CALM      29.93S VSB 1/4
WINSTON-SALEM  CLOUDY    63  61  93 CALM      29.94F FOG
RALEIGH-DURHAM FOG       62  60  93 NW5       29.93S VSB<1/4
FORT BRAGG     PTCLDY    62  62  98 N3        29.91S
FAYETTEVILLE   FOG       60  59  96 CALM      29.90F VSB 1
BURLINGTON     CLOUDY    63  61  93 W5        29.93S FOG
LAURINBURG     CLEAR     59  58  96 CALM      29.92S FOG
$$

NCZ011-015-027-028-043-044-047-080-103-301000-
NORTHEASTERN NORTH CAROLINA

CITY           SKY/WX    TMP DP  RH WIND       PRES   REMARKS
ROCKY MT-WILSO FOG       62  61  96 CALM      29.92S VSB 1/4
GREENVILLE       N/A     63  61  94 CALM      29.93F FOG
WASHINGTON     MOCLDY    63  62  97 CALM      29.92R
ELIZABETH CITY PTCLDY    64  62  93 NW9       29.92R
MANTEO         CLOUDY    67  60  75 NE7       29.90S
CAPE HATTERAS  LGT RAIN  64  60  87 N8        29.88S
$$

NCZ078-087-090-091-093-098-101-301000-
SOUTHEASTERN NORTH CAROLINA

CITY           SKY/WX    TMP DP  RH WIND       PRES   REMARKS
LUMBERTON      CLEAR     60  59  96 CALM      29.91S FOG
GOLDSBORO      CLOUDY    63  62  98 CALM      29.89F
KINSTON        CLEAR     62  62  99 CALM      29.92S FOG
KENANSVILLE    PTCLDY    61  59  94 CALM      29.92S FOG
NEW BERN       CLEAR     64  61  90 N5        29.90F
CHERRY POINT   PTCLDY    66  64  93 N5        29.89F
BEAUFORT       CLOUDY    67  62  84 NE3       29.88S
JACKSONVILLE   PTCLDY    63  62  97 N6        29.89S
WILMINGTON     PTCLDY    65  63  93 N6        29.88F
$$




USA.gov is the U.S. government's official web portal to all federal, state and local government web resources and services.